Location: Boleita
(10.4833°N, 66.8167°W)
Time: 01:47:54
(UTC+00:00)

Cosmos 2237 Rocket - Pass Details

Date: 08 November 2025
Orbit: 835 x 847 km, 71.0° (Epoch: 09 December)

Event Time Altitude Azimuth Distance (km) Brightness Sun altitude
Rises 08:26:54 0° 188° (S) 3,397 5.4 -27.8°
Reaches altitude 10° 08:29:22 10° 184° (S) 2,462 4.7 -27.2°
Maximum altitude 08:34:56 61° 105° (ESE) 951 2.6 -25.8°
Drops below altitude 10° 08:40:29 10° 25° (NNE) 2,456 4.7 -24.5°
Sets 08:42:57 0° 22° (NNE) 3,389 5.4 -23.9°
